Location: Home
(42.5358°N, 72.7383°W)
Time: 04:49:46
(UTC-04:00)

OBJECT BA - Visible Passes

Search period start: 26 June 2022 00:00
Search period end: 06 July 2022 00:00
Orbit: 568 x 587 km, 97.6° (Epoch: 25 June)

Date Brightness Start Highest point End Pass type
(mag) Time Alt. Az. Time Alt. Az. Time Alt. Az.
26 Jun ? 21:51:49 18° SE 21:54:39 46° ENE 21:58:39 10° N visible
26 Jun ? 23:28:06 11° WSW 23:30:10 15° W 23:32:36 10° NW visible
27 Jun ? 21:56:01 19° SE 21:58:46 51° ENE 22:02:49 10° N visible
27 Jun ? 23:32:17 10° WSW 23:34:21 13° W 23:36:26 10° WNW visible
28 Jun ? 22:00:11 20° SSE 22:02:53 57° ENE 22:06:59 10° N visible
28 Jun ? 23:36:52 10° WSW 23:38:31 12° W 23:40:11 10° WNW visible
29 Jun ? 22:04:22 21° SSE 22:07:00 64° ENE 22:11:08 10° N visible
29 Jun ? 23:41:41 10° WSW 23:42:42 11° W 23:43:43 10° WNW visible
30 Jun ? 22:08:32 22° SSE 22:11:07 72° ENE 22:15:17 10° N visible
01 Jul ? 22:12:42 23° SSE 22:15:15 81° ENE 22:19:25 10° N visible
02 Jul ? 22:16:53 24° SSE 22:19:21 89° ENE 22:23:32 10° NNW visible
03 Jul ? 22:21:03 25° S 22:23:27 82° WSW 22:27:38 10° NNW visible
04 Jul ? 22:25:13 25° S 22:27:34 73° WSW 22:31:44 10° NNW visible
05 Jul ? 22:29:23 25° S 22:31:41 65° W 22:35:49 10° NNW visible
